Year,Month,Day,Hour,Minute,Value (Times are PST for windgust in km/hr)
2007,01,03,00,00,4.80
2007,01,03,00,01,3.20
2007,01,03,00,02,3.20
2007,01,03,00,03,3.20
2007,01,03,00,04,1.60
2007,01,03,00,05,0.00
2007,01,03,00,06,1.60
2007,01,03,00,07,1.60
2007,01,03,00,08,3.20
2007,01,03,00,09,3.20
2007,01,03,00,10,3.20
2007,01,03,00,11,3.20
2007,01,03,00,12,3.20
2007,01,03,00,13,3.20
2007,01,03,00,14,0.00
2007,01,03,00,15,1.60
2007,01,03,00,16,1.60
2007,01,03,00,17,1.60
2007,01,03,00,18,1.60
2007,01,03,00,19,0.00
2007,01,03,00,20,3.20
2007,01,03,00,21,3.20
2007,01,03,00,22,1.60
2007,01,03,00,23,1.60
2007,01,03,00,24,1.60
2007,01,03,00,25,1.60
2007,01,03,00,26,3.20
2007,01,03,00,27,1.60
2007,01,03,00,28,1.60
2007,01,03,00,29,3.20
2007,01,03,00,30,3.20
2007,01,03,00,31,3.20
2007,01,03,00,32,1.60
2007,01,03,00,33,3.20
2007,01,03,00,34,3.20
2007,01,03,00,35,3.20
2007,01,03,00,36,3.20
2007,01,03,00,37,6.40
2007,01,03,00,38,4.80
2007,01,03,00,39,4.80
2007,01,03,00,40,4.80
2007,01,03,00,41,4.80
2007,01,03,00,42,3.20
2007,01,03,00,43,4.80
2007,01,03,00,44,4.80
2007,01,03,00,45,4.80
2007,01,03,00,46,3.20
2007,01,03,00,47,3.20
2007,01,03,00,48,1.60
2007,01,03,00,49,3.20
2007,01,03,00,50,3.20
2007,01,03,00,51,3.20
2007,01,03,00,52,4.80
2007,01,03,00,53,4.80
2007,01,03,00,54,4.80
2007,01,03,00,55,6.40
2007,01,03,00,56,4.80
2007,01,03,00,57,4.80
2007,01,03,00,58,6.40
2007,01,03,00,59,6.40
2007,01,03,01,00,6.40
2007,01,03,01,01,6.40
2007,01,03,01,02,4.80
2007,01,03,01,03,4.80
2007,01,03,01,04,4.80
2007,01,03,01,05,6.40
2007,01,03,01,06,6.40
2007,01,03,01,07,6.40
2007,01,03,01,08,6.40
2007,01,03,01,09,9.60
2007,01,03,01,10,11.30
2007,01,03,01,11,8.10
2007,01,03,01,12,4.80
2007,01,03,01,13,4.80
2007,01,03,01,14,4.80
2007,01,03,01,15,9.60
2007,01,03,01,16,8.10
2007,01,03,01,17,8.10
2007,01,03,01,18,8.10
2007,01,03,01,19,9.60
2007,01,03,01,20,8.10
2007,01,03,01,21,8.10
2007,01,03,01,22,6.40
2007,01,03,01,23,6.40
2007,01,03,01,24,4.80
2007,01,03,01,25,6.40
2007,01,03,01,26,4.80
2007,01,03,01,27,3.20
2007,01,03,01,28,3.20
2007,01,03,01,29,4.80
2007,01,03,01,30,6.40
2007,01,03,01,31,4.80
2007,01,03,01,32,4.80
2007,01,03,01,33,8.10
2007,01,03,01,34,6.40
2007,01,03,01,35,6.40
2007,01,03,01,36,6.40
2007,01,03,01,37,4.80
2007,01,03,01,38,6.40
2007,01,03,01,39,4.80
2007,01,03,01,40,4.80
2007,01,03,01,41,6.40
2007,01,03,01,42,6.40
2007,01,03,01,43,4.80
2007,01,03,01,44,4.80
2007,01,03,01,45,6.40
2007,01,03,01,46,8.10
2007,01,03,01,47,9.60
2007,01,03,01,48,6.40
2007,01,03,01,49,8.10
2007,01,03,01,50,4.80
2007,01,03,01,51,4.80
2007,01,03,01,52,4.80
2007,01,03,01,53,8.10
2007,01,03,01,54,9.60
2007,01,03,01,55,9.60
2007,01,03,01,56,11.30
2007,01,03,01,57,8.10
2007,01,03,01,58,9.60
2007,01,03,01,59,8.10
2007,01,03,02,00,8.10
2007,01,03,02,01,12.90
2007,01,03,02,02,9.60
2007,01,03,02,03,6.40
2007,01,03,02,04,6.40
2007,01,03,02,05,6.40
2007,01,03,02,06,4.80
2007,01,03,02,07,6.40
2007,01,03,02,08,8.10
2007,01,03,02,09,9.60
2007,01,03,02,10,16.10
2007,01,03,02,11,11.30
2007,01,03,02,12,8.10
2007,01,03,02,13,14.50
2007,01,03,02,14,11.30
2007,01,03,02,15,9.60
2007,01,03,02,16,8.10
2007,01,03,02,17,8.10
2007,01,03,02,18,11.30
2007,01,03,02,19,9.60
2007,01,03,02,20,8.10
2007,01,03,02,21,11.30
2007,01,03,02,22,11.30
2007,01,03,02,23,4.80
2007,01,03,02,24,4.80
2007,01,03,02,25,4.80
2007,01,03,02,26,9.60
2007,01,03,02,27,11.30
2007,01,03,02,28,8.10
2007,01,03,02,29,8.10
2007,01,03,02,30,8.10
2007,01,03,02,31,8.10
2007,01,03,02,32,12.90
2007,01,03,02,33,9.60
2007,01,03,02,34,8.10
2007,01,03,02,35,9.60
2007,01,03,02,36,6.40
2007,01,03,02,37,4.80
2007,01,03,02,38,8.10
2007,01,03,02,39,11.30
2007,01,03,02,40,9.60
2007,01,03,02,41,9.60
2007,01,03,02,42,11.30
2007,01,03,02,43,8.10
2007,01,03,02,44,9.60
2007,01,03,02,45,6.40
2007,01,03,02,46,4.80
2007,01,03,02,47,6.40
2007,01,03,02,48,4.80
2007,01,03,02,49,4.80
2007,01,03,02,50,4.80
2007,01,03,02,51,4.80
2007,01,03,02,52,3.20
2007,01,03,02,53,1.60
2007,01,03,02,54,1.60
2007,01,03,02,55,1.60
2007,01,03,02,56,1.60
2007,01,03,02,57,4.80
2007,01,03,02,58,4.80
2007,01,03,02,59,6.40
2007,01,03,03,00,3.20
2007,01,03,03,01,4.80
2007,01,03,03,02,3.20
2007,01,03,03,03,3.20
2007,01,03,03,04,3.20
2007,01,03,03,05,3.20
2007,01,03,03,06,3.20
2007,01,03,03,07,3.20
2007,01,03,03,08,1.60
2007,01,03,03,09,1.60
2007,01,03,03,10,1.60
2007,01,03,03,11,3.20
2007,01,03,03,12,3.20
2007,01,03,03,13,1.60
2007,01,03,03,14,1.60
2007,01,03,03,15,0.00
2007,01,03,03,16,0.00
2007,01,03,03,17,0.00
2007,01,03,03,18,0.00
2007,01,03,03,19,0.00
2007,01,03,03,20,0.00
2007,01,03,03,21,0.00
2007,01,03,03,22,1.60
2007,01,03,03,23,1.60
2007,01,03,03,24,1.60
2007,01,03,03,25,3.20
2007,01,03,03,26,1.60
2007,01,03,03,27,1.60
2007,01,03,03,28,6.40
2007,01,03,03,29,6.40
2007,01,03,03,30,4.80
2007,01,03,03,31,4.80
2007,01,03,03,32,1.60
2007,01,03,03,33,3.20
2007,01,03,03,34,3.20
2007,01,03,03,35,3.20
2007,01,03,03,36,1.60
2007,01,03,03,37,6.40
2007,01,03,03,38,6.40
2007,01,03,03,39,6.40
2007,01,03,03,40,8.10
2007,01,03,03,41,3.20
2007,01,03,03,42,9.60
2007,01,03,03,43,6.40
2007,01,03,03,44,4.80
2007,01,03,03,45,6.40
2007,01,03,03,46,4.80
2007,01,03,03,47,3.20
2007,01,03,03,48,4.80
2007,01,03,03,49,6.40
2007,01,03,03,50,8.10
2007,01,03,03,51,11.30
2007,01,03,03,52,6.40
2007,01,03,03,53,4.80
2007,01,03,03,54,9.60
2007,01,03,03,55,8.10
2007,01,03,03,56,6.40
2007,01,03,03,57,3.20
2007,01,03,03,58,3.20
2007,01,03,03,59,3.20
2007,01,03,04,00,4.80
2007,01,03,04,01,8.10
2007,01,03,04,02,6.40
2007,01,03,04,03,8.10
2007,01,03,04,04,6.40
2007,01,03,04,05,4.80
2007,01,03,04,06,4.80
2007,01,03,04,07,6.40
2007,01,03,04,08,14.50
2007,01,03,04,09,4.80
2007,01,03,04,10,3.20
2007,01,03,04,11,3.20
2007,01,03,04,12,11.30
2007,01,03,04,13,8.10
2007,01,03,04,14,4.80
2007,01,03,04,15,4.80
2007,01,03,04,16,6.40
2007,01,03,04,17,4.80
2007,01,03,04,18,8.10
2007,01,03,04,19,16.10
2007,01,03,04,20,19.30
2007,01,03,04,21,27.40
2007,01,03,04,22,16.10
2007,01,03,04,23,17.70
2007,01,03,04,24,19.30
2007,01,03,04,25,19.30
2007,01,03,04,26,19.30
2007,01,03,04,27,17.70
2007,01,03,04,28,17.70
2007,01,03,04,29,19.30
2007,01,03,04,30,24.20
2007,01,03,04,31,19.30
2007,01,03,04,32,14.50
2007,01,03,04,33,17.70
2007,01,03,04,34,20.90
2007,01,03,04,35,20.90
2007,01,03,04,36,19.30
2007,01,03,04,37,17.70
2007,01,03,04,38,16.10
2007,01,03,04,39,17.70
2007,01,03,04,40,17.70
2007,01,03,04,41,17.70
2007,01,03,04,42,19.30
2007,01,03,04,43,12.90
2007,01,03,04,44,12.90
2007,01,03,04,45,11.30
2007,01,03,04,46,17.70
2007,01,03,04,47,11.30
2007,01,03,04,48,17.70
2007,01,03,04,49,16.10
2007,01,03,04,50,16.10
2007,01,03,04,51,19.30
2007,01,03,04,52,17.70
2007,01,03,04,53,17.70
2007,01,03,04,54,17.70
2007,01,03,04,55,22.50
2007,01,03,04,56,14.50
2007,01,03,04,57,20.90
2007,01,03,04,58,12.90
2007,01,03,04,59,17.70
2007,01,03,05,00,17.70
2007,01,03,05,01,19.30
2007,01,03,05,02,24.20
2007,01,03,05,03,22.50
2007,01,03,05,04,20.90
2007,01,03,05,05,19.30
2007,01,03,05,06,16.10
2007,01,03,05,07,11.30
2007,01,03,05,08,9.60
2007,01,03,05,09,16.10
2007,01,03,05,10,17.70
2007,01,03,05,11,9.60
2007,01,03,05,12,6.40
2007,01,03,05,13,3.20
2007,01,03,05,14,11.30
2007,01,03,05,15,16.10
2007,01,03,05,16,9.60
2007,01,03,05,17,16.10
2007,01,03,05,18,17.70
2007,01,03,05,19,16.10
2007,01,03,05,20,9.60
2007,01,03,05,21,11.30
2007,01,03,05,22,14.50
2007,01,03,05,23,14.50
2007,01,03,05,24,17.70
2007,01,03,05,25,17.70
2007,01,03,05,26,11.30
2007,01,03,05,27,11.30
2007,01,03,05,28,9.60
2007,01,03,05,29,9.60
2007,01,03,05,30,11.30
2007,01,03,05,31,11.30
2007,01,03,05,32,8.10
2007,01,03,05,33,8.10
2007,01,03,05,34,8.10
2007,01,03,05,35,4.80
2007,01,03,05,36,4.80
2007,01,03,05,37,9.60
2007,01,03,05,38,16.10
2007,01,03,05,39,17.70
2007,01,03,05,40,17.70
2007,01,03,05,41,14.50
2007,01,03,05,42,16.10
2007,01,03,05,43,14.50
2007,01,03,05,44,8.10
2007,01,03,05,45,8.10
2007,01,03,05,46,9.60
2007,01,03,05,47,11.30
2007,01,03,05,48,12.90
2007,01,03,05,49,11.30
2007,01,03,05,50,11.30
2007,01,03,05,51,11.30
2007,01,03,05,52,9.60
2007,01,03,05,53,11.30
2007,01,03,05,54,11.30
2007,01,03,05,55,11.30
2007,01,03,05,56,4.80
2007,01,03,05,57,6.40
2007,01,03,05,58,4.80
2007,01,03,05,59,3.20
2007,01,03,06,00,4.80
2007,01,03,06,01,4.80
2007,01,03,06,02,4.80
2007,01,03,06,03,3.20
2007,01,03,06,04,3.20
2007,01,03,06,05,4.80
2007,01,03,06,06,4.80
2007,01,03,06,07,3.20
2007,01,03,06,08,1.60
2007,01,03,06,09,3.20
2007,01,03,06,10,4.80
2007,01,03,06,11,3.20
2007,01,03,06,12,0.00
2007,01,03,06,13,1.60
2007,01,03,06,14,0.00
2007,01,03,06,15,1.60
2007,01,03,06,16,3.20
2007,01,03,06,17,3.20
2007,01,03,06,18,0.00
2007,01,03,06,19,0.00
2007,01,03,06,20,1.60
2007,01,03,06,21,0.00
2007,01,03,06,22,1.60
2007,01,03,06,23,1.60
2007,01,03,06,24,1.60
2007,01,03,06,25,1.60
2007,01,03,06,26,1.60
2007,01,03,06,27,1.60
2007,01,03,06,28,0.00
2007,01,03,06,29,0.00
2007,01,03,06,30,0.00
2007,01,03,06,31,1.60
2007,01,03,06,32,1.60
2007,01,03,06,33,3.20
2007,01,03,06,34,4.80
2007,01,03,06,35,6.40
2007,01,03,06,36,4.80
2007,01,03,06,37,4.80
2007,01,03,06,38,4.80
2007,01,03,06,39,4.80
2007,01,03,06,40,3.20
2007,01,03,06,41,8.10
2007,01,03,06,42,6.40
2007,01,03,06,43,4.80
2007,01,03,06,44,6.40
2007,01,03,06,45,6.40
2007,01,03,06,46,6.40
2007,01,03,06,47,4.80
2007,01,03,06,48,4.80
2007,01,03,06,49,1.60
2007,01,03,06,50,4.80
2007,01,03,06,51,3.20
2007,01,03,06,52,8.10
2007,01,03,06,53,6.40
2007,01,03,06,54,4.80
2007,01,03,06,55,4.80
2007,01,03,06,56,4.80
2007,01,03,06,57,4.80
2007,01,03,06,58,6.40
2007,01,03,06,59,6.40
2007,01,03,07,00,8.10
2007,01,03,07,01,8.10
2007,01,03,07,02,6.40
2007,01,03,07,03,6.40
2007,01,03,07,04,4.80
2007,01,03,07,05,6.40
2007,01,03,07,06,6.40
2007,01,03,07,07,6.40
2007,01,03,07,08,3.20
2007,01,03,07,09,6.40
2007,01,03,07,10,6.40
2007,01,03,07,11,4.80
2007,01,03,07,12,6.40
2007,01,03,07,13,6.40
2007,01,03,07,14,6.40
2007,01,03,07,15,6.40
2007,01,03,07,16,6.40
2007,01,03,07,17,6.40
2007,01,03,07,18,8.10
2007,01,03,07,19,8.10
2007,01,03,07,20,8.10
2007,01,03,07,21,6.40
2007,01,03,07,22,6.40
2007,01,03,07,23,6.40
2007,01,03,07,24,9.60
2007,01,03,07,25,11.30
2007,01,03,07,26,6.40
2007,01,03,07,27,6.40
2007,01,03,07,28,9.60
2007,01,03,07,29,6.40
2007,01,03,07,30,6.40
2007,01,03,07,31,6.40
2007,01,03,07,32,4.80
2007,01,03,07,33,4.80
2007,01,03,07,34,6.40
2007,01,03,07,35,9.60
2007,01,03,07,36,9.60
2007,01,03,07,37,11.30
2007,01,03,07,38,11.30
2007,01,03,07,39,8.10
2007,01,03,07,40,8.10
2007,01,03,07,41,8.10
2007,01,03,07,42,8.10
2007,01,03,07,43,8.10
2007,01,03,07,44,9.60
2007,01,03,07,45,12.90
2007,01,03,07,46,9.60
2007,01,03,07,47,9.60
2007,01,03,07,48,8.10
2007,01,03,07,49,8.10
2007,01,03,07,50,6.40
2007,01,03,07,51,6.40
2007,01,03,07,52,4.80
2007,01,03,07,53,4.80
2007,01,03,07,54,4.80
2007,01,03,07,55,4.80
2007,01,03,07,56,3.20
2007,01,03,07,57,1.60
2007,01,03,07,58,1.60
2007,01,03,07,59,0.00
2007,01,03,08,00,1.60
2007,01,03,08,01,1.60
2007,01,03,08,02,1.60
2007,01,03,08,03,0.00
2007,01,03,08,04,3.20
2007,01,03,08,05,4.80
2007,01,03,08,06,4.80
2007,01,03,08,07,4.80
2007,01,03,08,08,3.20
2007,01,03,08,09,4.80
2007,01,03,08,10,4.80
2007,01,03,08,11,3.20
2007,01,03,08,12,4.80
2007,01,03,08,13,3.20
2007,01,03,08,14,3.20
2007,01,03,08,15,4.80
2007,01,03,08,16,4.80
2007,01,03,08,17,9.60
2007,01,03,08,18,8.10
2007,01,03,08,19,9.60
2007,01,03,08,20,9.60
2007,01,03,08,21,8.10
2007,01,03,08,22,8.10
2007,01,03,08,23,9.60
2007,01,03,08,24,11.30
2007,01,03,08,25,14.50
2007,01,03,08,26,17.70
2007,01,03,08,27,16.10
2007,01,03,08,28,16.10
2007,01,03,08,29,19.30
2007,01,03,08,30,17.70
2007,01,03,08,31,17.70
2007,01,03,08,32,17.70
2007,01,03,08,33,22.50
2007,01,03,08,34,22.50
2007,01,03,08,35,22.50
2007,01,03,08,36,25.70
2007,01,03,08,37,20.90
2007,01,03,08,38,22.50
2007,01,03,08,39,17.70
2007,01,03,08,40,12.90
2007,01,03,08,41,16.10
2007,01,03,08,42,11.30
2007,01,03,08,43,9.60
2007,01,03,08,44,9.60
2007,01,03,08,45,16.10
2007,01,03,08,46,11.30
2007,01,03,08,47,11.30
2007,01,03,08,48,11.30
2007,01,03,08,49,8.10
2007,01,03,08,50,6.40
2007,01,03,08,51,9.60
2007,01,03,08,52,17.70
2007,01,03,08,53,9.60
2007,01,03,08,54,14.50
2007,01,03,08,55,16.10
2007,01,03,08,56,8.10
2007,01,03,08,57,12.90
2007,01,03,08,58,9.60
2007,01,03,08,59,9.60
2007,01,03,09,00,17.70
2007,01,03,09,01,17.70
2007,01,03,09,02,11.30
2007,01,03,09,03,12.90
2007,01,03,09,04,9.60
2007,01,03,09,05,12.90
2007,01,03,09,06,16.10
2007,01,03,09,07,8.10
2007,01,03,09,08,14.50
2007,01,03,09,09,14.50
2007,01,03,09,10,14.50
2007,01,03,09,11,16.10
2007,01,03,09,12,16.10
2007,01,03,09,13,11.30
2007,01,03,09,14,14.50
2007,01,03,09,15,11.30
2007,01,03,09,16,16.10
2007,01,03,09,17,16.10
2007,01,03,09,18,14.50
2007,01,03,09,19,8.10
2007,01,03,09,20,8.10
2007,01,03,09,21,8.10
2007,01,03,09,22,14.50
2007,01,03,09,23,14.50
2007,01,03,09,24,9.60
2007,01,03,09,25,17.70
2007,01,03,09,26,9.60
2007,01,03,09,27,11.30
2007,01,03,09,28,11.30
2007,01,03,09,29,11.30
2007,01,03,09,30,11.30
2007,01,03,09,31,9.60
2007,01,03,09,32,11.30
2007,01,03,09,33,16.10
2007,01,03,09,34,14.50
2007,01,03,09,35,11.30
2007,01,03,09,36,17.70
2007,01,03,09,37,16.10
2007,01,03,09,38,14.50
2007,01,03,09,39,14.50
2007,01,03,09,40,17.70
2007,01,03,09,41,16.10
2007,01,03,09,42,17.70
2007,01,03,09,43,11.30
2007,01,03,09,44,16.10
2007,01,03,09,45,19.30
2007,01,03,09,46,16.10
2007,01,03,09,47,19.30
2007,01,03,09,48,14.50
2007,01,03,09,49,11.30
2007,01,03,09,50,20.90
2007,01,03,09,51,14.50
2007,01,03,09,52,17.70
2007,01,03,09,53,16.10
2007,01,03,09,54,19.30
2007,01,03,09,55,16.10
2007,01,03,09,56,16.10
2007,01,03,09,57,17.70
2007,01,03,09,58,17.70
2007,01,03,09,59,17.70
2007,01,03,10,00,12.90
2007,01,03,10,01,12.90
2007,01,03,10,02,9.60
2007,01,03,10,03,11.30
2007,01,03,10,04,12.90
2007,01,03,10,05,9.60
2007,01,03,10,06,16.10
2007,01,03,10,07,16.10
2007,01,03,10,08,19.30
2007,01,03,10,09,25.70
2007,01,03,10,10,19.30
2007,01,03,10,11,17.70
2007,01,03,10,12,11.30
2007,01,03,10,13,9.60
2007,01,03,10,14,11.30
2007,01,03,10,15,8.10
2007,01,03,10,16,4.80
2007,01,03,10,17,6.40
2007,01,03,10,18,12.90
2007,01,03,10,19,14.50
2007,01,03,10,20,11.30
2007,01,03,10,21,8.10
2007,01,03,10,22,12.90
2007,01,03,10,23,19.30
2007,01,03,10,24,16.10
2007,01,03,10,25,16.10
2007,01,03,10,26,9.60
2007,01,03,10,27,3.20
2007,01,03,10,28,3.20
2007,01,03,10,29,3.20
2007,01,03,10,30,3.20
2007,01,03,10,31,3.20
2007,01,03,10,32,3.20
2007,01,03,10,33,16.10
2007,01,03,10,34,17.70
2007,01,03,10,35,17.70
2007,01,03,10,36,16.10
2007,01,03,10,37,17.70
2007,01,03,10,38,12.90
2007,01,03,10,39,22.50
2007,01,03,10,40,22.50
2007,01,03,10,41,22.50
2007,01,03,10,42,20.90
2007,01,03,10,43,22.50
2007,01,03,10,44,16.10
2007,01,03,10,45,14.50
2007,01,03,10,46,17.70
2007,01,03,10,47,19.30
2007,01,03,10,48,19.30
2007,01,03,10,49,19.30
2007,01,03,10,50,14.50
2007,01,03,10,51,16.10
2007,01,03,10,52,19.30
2007,01,03,10,53,14.50
2007,01,03,10,54,17.70
2007,01,03,10,55,19.30
2007,01,03,10,56,16.10
2007,01,03,10,57,19.30
2007,01,03,10,58,19.30
2007,01,03,10,59,19.30
2007,01,03,11,00,17.70
2007,01,03,11,01,22.50
2007,01,03,11,02,20.90
2007,01,03,11,03,20.90
2007,01,03,11,04,20.90
2007,01,03,11,05,24.20
2007,01,03,11,06,25.70
2007,01,03,11,07,20.90
2007,01,03,11,08,20.90
2007,01,03,11,09,20.90
2007,01,03,11,10,20.90
2007,01,03,11,11,20.90
2007,01,03,11,12,17.70
2007,01,03,11,13,8.10
2007,01,03,11,14,8.10
2007,01,03,11,15,12.90
2007,01,03,11,16,16.10
2007,01,03,11,17,24.20
2007,01,03,11,18,20.90
2007,01,03,11,19,11.30
2007,01,03,11,20,16.10
2007,01,03,11,21,20.90
2007,01,03,11,22,20.90
2007,01,03,11,23,14.50
2007,01,03,11,24,17.70
2007,01,03,11,25,25.70
2007,01,03,11,26,20.90
2007,01,03,11,27,20.90
2007,01,03,11,28,20.90
2007,01,03,11,29,20.90
2007,01,03,11,30,19.30
2007,01,03,11,31,20.90
2007,01,03,11,32,19.30
2007,01,03,11,33,17.70
2007,01,03,11,34,20.90
2007,01,03,11,35,16.10
2007,01,03,11,36,17.70
2007,01,03,11,37,17.70
2007,01,03,11,38,29.00
2007,01,03,11,39,24.20
2007,01,03,11,40,24.20
2007,01,03,11,41,19.30
2007,01,03,11,42,22.50
2007,01,03,11,43,22.50
2007,01,03,11,44,20.90
2007,01,03,11,45,17.70
2007,01,03,11,46,22.50
2007,01,03,11,47,22.50
2007,01,03,11,48,19.30
2007,01,03,11,49,19.30
2007,01,03,11,50,17.70
2007,01,03,11,51,17.70
2007,01,03,11,52,17.70
2007,01,03,11,53,17.70
2007,01,03,11,54,17.70
2007,01,03,11,55,16.10
2007,01,03,11,56,11.30
2007,01,03,11,57,14.50
2007,01,03,11,58,17.70
2007,01,03,11,59,19.30
2007,01,03,12,00,19.30
2007,01,03,12,01,22.50
2007,01,03,12,02,14.50
2007,01,03,12,03,14.50
2007,01,03,12,04,20.90
2007,01,03,12,05,17.70
2007,01,03,12,06,19.30
2007,01,03,12,07,17.70
2007,01,03,12,08,19.30
2007,01,03,12,09,20.90
2007,01,03,12,10,16.10
2007,01,03,12,11,22.50
2007,01,03,12,12,24.20
2007,01,03,12,13,17.70
2007,01,03,12,14,24.20
2007,01,03,12,15,27.40
2007,01,03,12,16,24.20
2007,01,03,12,17,14.50
2007,01,03,12,18,22.50
2007,01,03,12,19,27.40
2007,01,03,12,20,19.30
2007,01,03,12,21,22.50
2007,01,03,12,22,24.20
2007,01,03,12,23,22.50
2007,01,03,12,24,24.20
2007,01,03,12,25,25.70
2007,01,03,12,26,20.90
2007,01,03,12,27,20.90
2007,01,03,12,28,22.50
2007,01,03,12,29,22.50
2007,01,03,12,30,17.70
2007,01,03,12,31,19.30
2007,01,03,12,32,20.90
2007,01,03,12,33,24.20
2007,01,03,12,34,20.90
2007,01,03,12,35,22.50
2007,01,03,12,36,27.40
2007,01,03,12,37,16.10
2007,01,03,12,38,17.70
2007,01,03,12,39,22.50
2007,01,03,12,40,22.50
2007,01,03,12,41,19.30
2007,01,03,12,42,20.90
2007,01,03,12,43,24.20
2007,01,03,12,44,19.30
2007,01,03,12,45,19.30
2007,01,03,12,46,22.50
2007,01,03,12,47,22.50
2007,01,03,12,48,24.20
2007,01,03,12,49,37.00
2007,01,03,12,50,40.20
2007,01,03,12,51,30.60
2007,01,03,12,52,32.20
2007,01,03,12,53,32.20
2007,01,03,12,54,30.60
2007,01,03,12,55,24.20
2007,01,03,12,56,24.20
2007,01,03,12,57,22.50
2007,01,03,12,58,29.00
2007,01,03,12,59,24.20
2007,01,03,13,00,22.50
2007,01,03,13,01,41.80
2007,01,03,13,02,32.20
2007,01,03,13,03,25.70
2007,01,03,13,04,25.70
2007,01,03,13,05,25.70
2007,01,03,13,06,25.70
2007,01,03,13,07,20.90
2007,01,03,13,08,16.10
2007,01,03,13,09,22.50
2007,01,03,13,10,19.30
2007,01,03,13,11,25.70
2007,01,03,13,12,29.00
2007,01,03,13,13,25.70
2007,01,03,13,14,22.50
2007,01,03,13,15,32.20
2007,01,03,13,16,25.70
2007,01,03,13,17,22.50
2007,01,03,13,18,24.20
2007,01,03,13,19,32.20
2007,01,03,13,20,32.20
2007,01,03,13,21,29.00
2007,01,03,13,22,25.70
2007,01,03,13,23,24.20
2007,01,03,13,24,20.90
2007,01,03,13,25,20.90
2007,01,03,13,26,32.20
2007,01,03,13,27,24.20
2007,01,03,13,28,22.50
2007,01,03,13,29,8.10
2007,01,03,13,30,24.20
2007,01,03,13,31,27.40
2007,01,03,13,32,32.20
2007,01,03,13,33,27.40
2007,01,03,13,34,20.90
2007,01,03,13,35,30.60
2007,01,03,13,36,24.20
2007,01,03,13,37,25.70
2007,01,03,13,38,27.40
2007,01,03,13,39,27.40
2007,01,03,13,40,29.00
2007,01,03,13,41,25.70
2007,01,03,13,42,25.70
2007,01,03,13,43,29.00
2007,01,03,13,44,27.40
2007,01,03,13,45,32.20
2007,01,03,13,46,19.30
2007,01,03,13,47,25.70
2007,01,03,13,48,25.70
2007,01,03,13,49,24.20
2007,01,03,13,50,20.90
2007,01,03,13,51,11.30
2007,01,03,13,52,16.10
2007,01,03,13,53,17.70
2007,01,03,13,54,19.30
2007,01,03,13,55,19.30
2007,01,03,13,56,19.30
2007,01,03,13,57,27.40
2007,01,03,13,58,22.50
2007,01,03,13,59,16.10
2007,01,03,14,00,16.10
2007,01,03,14,01,24.20
2007,01,03,14,02,22.50
2007,01,03,14,03,22.50
2007,01,03,14,04,32.20
2007,01,03,14,05,32.20
2007,01,03,14,06,30.60
2007,01,03,14,07,27.40
2007,01,03,14,08,20.90
2007,01,03,14,09,22.50
2007,01,03,14,10,27.40
2007,01,03,14,11,17.70
2007,01,03,14,12,32.20
2007,01,03,14,13,25.70
2007,01,03,14,14,29.00
2007,01,03,14,15,32.20
2007,01,03,14,16,27.40
2007,01,03,14,17,27.40
2007,01,03,14,18,24.20
2007,01,03,14,19,19.30
2007,01,03,14,20,20.90
2007,01,03,14,21,24.20
2007,01,03,14,22,25.70
2007,01,03,14,23,22.50
2007,01,03,14,24,17.70
2007,01,03,14,25,20.90
2007,01,03,14,26,24.20
2007,01,03,14,27,24.20
2007,01,03,14,28,22.50
2007,01,03,14,29,25.70
2007,01,03,14,30,27.40
2007,01,03,14,31,25.70
2007,01,03,14,32,27.40
2007,01,03,14,33,22.50
2007,01,03,14,34,25.70
2007,01,03,14,35,22.50
2007,01,03,14,36,20.90
2007,01,03,14,37,22.50
2007,01,03,14,38,24.20
2007,01,03,14,39,19.30
2007,01,03,14,40,19.30
2007,01,03,14,41,19.30
2007,01,03,14,42,32.20
2007,01,03,14,43,22.50
2007,01,03,14,44,24.20
2007,01,03,14,45,25.70
2007,01,03,14,46,29.00
2007,01,03,14,47,27.40
2007,01,03,14,48,27.40
2007,01,03,14,49,29.00
2007,01,03,14,50,22.50
2007,01,03,14,51,25.70
2007,01,03,14,52,20.90
2007,01,03,14,53,29.00
2007,01,03,14,54,30.60
2007,01,03,14,55,30.60
2007,01,03,14,56,25.70
2007,01,03,14,57,22.50
2007,01,03,14,58,27.40
2007,01,03,14,59,29.00
2007,01,03,15,00,20.90
2007,01,03,15,01,17.70
2007,01,03,15,02,22.50
2007,01,03,15,03,22.50
2007,01,03,15,04,16.10
2007,01,03,15,05,19.30
2007,01,03,15,06,19.30
2007,01,03,15,07,20.90
2007,01,03,15,08,14.50
2007,01,03,15,09,14.50
2007,01,03,15,10,16.10
2007,01,03,15,11,11.30
2007,01,03,15,12,12.90
2007,01,03,15,13,16.10
2007,01,03,15,14,11.30
2007,01,03,15,15,9.60
2007,01,03,15,16,9.60
2007,01,03,15,17,9.60
2007,01,03,15,18,14.50
2007,01,03,15,19,14.50
2007,01,03,15,20,16.10
2007,01,03,15,21,11.30
2007,01,03,15,22,14.50
2007,01,03,15,23,12.90
2007,01,03,15,24,11.30
2007,01,03,15,25,9.60
2007,01,03,15,26,11.30
2007,01,03,15,27,8.10
2007,01,03,15,28,4.80
2007,01,03,15,29,4.80
2007,01,03,15,30,8.10
2007,01,03,15,31,9.60
2007,01,03,15,32,9.60
2007,01,03,15,33,14.50
2007,01,03,15,34,16.10
2007,01,03,15,35,20.90
2007,01,03,15,36,20.90
2007,01,03,15,37,27.40
2007,01,03,15,38,25.70
2007,01,03,15,39,20.90
2007,01,03,15,40,16.10
2007,01,03,15,41,14.50
2007,01,03,15,42,16.10
2007,01,03,15,43,20.90
2007,01,03,15,44,30.60
2007,01,03,15,45,22.50
2007,01,03,15,46,16.10
2007,01,03,15,47,19.30
2007,01,03,15,48,17.70
2007,01,03,15,49,14.50
2007,01,03,15,50,9.60
2007,01,03,15,51,17.70
2007,01,03,15,52,14.50
2007,01,03,15,53,17.70
2007,01,03,15,54,17.70
2007,01,03,15,55,19.30
2007,01,03,15,56,16.10
2007,01,03,15,57,16.10
2007,01,03,15,58,16.10
2007,01,03,15,59,16.10
2007,01,03,16,00,14.50
2007,01,03,16,01,9.60
2007,01,03,16,02,9.60
2007,01,03,16,03,16.10
2007,01,03,16,04,14.50
2007,01,03,16,05,14.50
2007,01,03,16,06,11.30
2007,01,03,16,07,11.30
2007,01,03,16,08,11.30
2007,01,03,16,09,11.30
2007,01,03,16,10,17.70
2007,01,03,16,11,14.50
2007,01,03,16,12,8.10
2007,01,03,16,13,9.60
2007,01,03,16,14,16.10
2007,01,03,16,15,14.50
2007,01,03,16,16,8.10
2007,01,03,16,17,12.90
2007,01,03,16,18,14.50
2007,01,03,16,19,12.90
2007,01,03,16,20,14.50
2007,01,03,16,21,11.30
2007,01,03,16,22,22.50
2007,01,03,16,23,16.10
2007,01,03,16,24,16.10
2007,01,03,16,25,19.30
2007,01,03,16,26,12.90
2007,01,03,16,27,16.10
2007,01,03,16,28,22.50
2007,01,03,16,29,17.70
2007,01,03,16,30,12.90
2007,01,03,16,31,9.60
2007,01,03,16,32,11.30
2007,01,03,16,33,17.70
2007,01,03,16,34,17.70
2007,01,03,16,35,16.10
2007,01,03,16,36,11.30
2007,01,03,16,37,9.60
2007,01,03,16,38,19.30
2007,01,03,16,39,17.70
2007,01,03,16,40,16.10
2007,01,03,16,41,17.70
2007,01,03,16,42,17.70
2007,01,03,16,43,17.70
2007,01,03,16,44,16.10
2007,01,03,16,45,20.90
2007,01,03,16,46,17.70
2007,01,03,16,47,17.70
2007,01,03,16,48,17.70
2007,01,03,16,49,20.90
2007,01,03,16,50,16.10
2007,01,03,16,51,19.30
2007,01,03,16,52,11.30
2007,01,03,16,53,12.90
2007,01,03,16,54,9.60
2007,01,03,16,55,8.10
2007,01,03,16,56,16.10
2007,01,03,16,57,11.30
2007,01,03,16,58,9.60
2007,01,03,16,59,9.60
2007,01,03,17,00,8.10
2007,01,03,17,01,11.30
2007,01,03,17,02,17.70
2007,01,03,17,03,22.50
2007,01,03,17,04,20.90
2007,01,03,17,05,22.50
2007,01,03,17,06,11.30
2007,01,03,17,07,11.30
2007,01,03,17,08,14.50
2007,01,03,17,09,16.10
2007,01,03,17,10,17.70
2007,01,03,17,11,16.10
2007,01,03,17,12,16.10
2007,01,03,17,13,25.70
2007,01,03,17,14,27.40
2007,01,03,17,15,22.50
2007,01,03,17,16,16.10
2007,01,03,17,17,11.30
2007,01,03,17,18,16.10
2007,01,03,17,19,17.70
2007,01,03,17,20,19.30
2007,01,03,17,21,19.30
2007,01,03,17,22,17.70
2007,01,03,17,23,14.50
2007,01,03,17,24,19.30
2007,01,03,17,25,27.40
2007,01,03,17,26,27.40
2007,01,03,17,27,19.30
2007,01,03,17,28,19.30
2007,01,03,17,29,19.30
2007,01,03,17,30,16.10
2007,01,03,17,31,25.70
2007,01,03,17,32,19.30
2007,01,03,17,33,20.90
2007,01,03,17,34,19.30
2007,01,03,17,35,24.20
2007,01,03,17,36,27.40
2007,01,03,17,37,25.70
2007,01,03,17,38,27.40
2007,01,03,17,39,24.20